User: anonymous   Login
Location: Chenango Forks
(42.2242°N, 75.8278°W)
Time: 07:14:29
(UTC-04:00)
Language:

Okean 3 Rocket - Orbit

View from above orbital plane
View from above orbital plane
View from above satellite
View from above satellite

Ground track
Ground track

The orbit data is extracted from the following two-line orbital elements,

1 21398U 91039B   16120.47132999  .00000142  00000-0  15717-4 0  9991
2 21398  82.5231 251.2729 0023032  98.3811 327.1622 14.79599554342734
Epoch (UTC): 29 April 2016 11:18:42
Eccentricity: 0.0023032
inclination: 82.5231°
perigee height: 614 km
apogee height: 647 km
right ascension of ascending node: 251.2729°
argument of perigee: 98.3811°
revolutions per day: 14.79599554
mean anomaly at epoch: 327.1622°
orbit number at epoch: 34273

The dashed part of the orbit path shows where the satellite is in the earth's shadow,  

DLR